Regional Weather Roundup
Issued by NWS

Home | Current Version | Previous Version | Text Only | Print | Product List | Glossary On
Versions: 1 2 3 4 5 6 7 8 9 10 11 12 13 14 15 16 17 18 19 20 21 22 23 24 25 26 27 28 29 30 31 32 33 34 35 36 37 38 39 40 41 42 43 44 45 46 47 48 49 50
000
ASUS46 KPQR 031310
RWROR

OREGON REGIONAL WEATHER ROUNDUP
NATIONAL WEATHER SERVICE PORTLAND OR
600 AM PDT SUN MAY 03 2015

NOTE: "FAIR" INDICATES FEW OR NO CLOUDS BELOW 12,000 FEET WITH
NO SIGNIFICANT WEATHER AND/OR OBSTRUCTIONS TO VISIBILITY.

ORZ001>013-031400-
NORTHWEST OREGON


CITY           SKY/WX    TMP DP  RH WIND       PRES   REMARKS
ASTORIA        PTCLDY    40  38  93 SE3       30.00S FOG
NEWPORT        CLEAR     37  37 100 CALM      30.01S
PORTLAND       PTCLDY    47  43  86 CALM      29.98S
VANCOUVER WA   CLEAR     41  37  86 CALM      29.97S
SCAPPOOSE      CLEAR     43  37  79 CALM      29.97S
HILLSBORO      CLEAR     38  35  89 CALM      29.97S
AURORA         CLEAR     41  39  93 CALM      29.98S
MCMINNVILLE    CLEAR     39  37  92 CALM      29.98S
SALEM          CLEAR     41  39  93 CALM      29.96S
CORVALLIS      CLEAR     43  39  87 NW6       29.97S
EUGENE         PTCLDY    38  36  92 CALM      29.96S FOG
$$

ORZ021-028-031400-
SOUTHWEST OREGON


CITY           SKY/WX    TMP DP  RH WIND       PRES   REMARKS
NORTH BEND     CLOUDY    45  45 100 CALM      29.98S
BROOKINGS      FOG       47  47 100 CALM      29.88S VSB 1
ROSEBURG       CLEAR     44  38  79 CALM      29.95R
SEXTON SUMMIT  CLEAR     46  26  45 NE3       29.90S
MEDFORD        CLEAR     45  36  70 CALM      29.90S
$$

ORZ014>016-041-031400-
COLUMBIA GORGE


CITY           SKY/WX    TMP DP  RH WIND       PRES   REMARKS
TROUTDALE      CLEAR     42  39  89 CALM      29.96S
THE DALLES     CLEAR     44  38  79 CALM      29.94S
$$

ORZ029>031-041-044-049-050-061>064-502-503-505>511-031400-
EASTERN OREGON


CITY           SKY/WX    TMP DP  RH WIND       PRES   REMARKS
REDMOND        CLEAR     26  20  77 SE3       29.94R
BEND           CLEAR     36  27  69 CALM      29.94S
PRINEVILLE     CLEAR     28  21  74 CALM      29.94S
KLAMATH FALLS  MOCLDY    38  33  82 CALM      29.91F
LAKEVIEW       CLEAR     32  21  64 N8        29.96S WCI  25
HERMISTON      CLEAR     36  30  79 S6        29.94R WCI  31
PENDLETON      CLEAR     39  30  70 E9        29.93S WCI  33
JOHN DAY       CLEAR     36  30  79 E6        29.95S WCI  31
MEACHAM        CLEAR     25  22  88 CALM      29.95S
LA GRANDE      CLEAR     37  23  56 NW8       29.94S WCI  31
BAKER CITY     CLEAR     25  24  96 CALM      29.94S
BURNS          CLEAR     38  26  62 W9        29.92S WCI  31
ROME             N/A     42  27  55 SE6       29.89R
ONTARIO        PTCLDY    52  30  43 N9        29.88R
$$


USA.gov is the U.S. government's official web portal to all federal, state and local government web resources and services.